Regional Weather Roundup
Issued by NWS

Home | Current Version | Previous Version | Text Only | Print | Product List | Glossary On
Versions: 1 2 3 4 5 6 7 8 9 10 11 12 13 14 15 16 17 18 19 20 21 22 23 24 25 26 27 28 29 30 31 32 33 34 35 36 37 38 39 40 41 42 43 44 45 46 47 48 49 50
000
ASUS44 KOUN 222110
RWROK

WEATHER ROUNDUP FOR OKLAHOMA
NATIONAL WEATHER SERVICE NORMAN OK
400 PM CDT WED OCT 22 2014

NOTE: "FAIR" INDICATES FEW OR NO CLOUDS BELOW 12,000 FEET WITH NO
      SIGNIFICANT WEATHER AND/OR OBSTRUCTIONS TO VISIBILITY.

OKZ001>007-009>012-014-015-017-222200-
NORTHWEST OKLAHOMA AND THE PANHANDLE

CITY           SKY/WX    TMP DP  RH WIND       PRES   REMARKS
GAGE           CLOUDY    63  60  90 S9        30.07F
ENID/WOODRING  PTSUNNY   77  57  50 S13       30.05F
$$

OKZ016-021>023-033>039-044-045-222200-
SOUTHWEST OKLAHOMA

CITY           SKY/WX    TMP DP  RH WIND       PRES   REMARKS
LAWTON/REGL    CLOUDY    76  51  41 S13       30.08F
LAWTON/FT SILL CLOUDY    76  54  47 S8        30.07F
FREDERICK      LGT RAIN  70  59  68 S13       30.07S
CLINTON        LGT RAIN  66  57  72 SW13      30.11R
HOBART         CLOUDY    73  51  46 S20       30.09S
ALTUS AFB      DRIZZLE   66  61  82 SW12      30.10R
$$

OKZ018>020-024>031-222200-
CENTRAL OKLAHOMA

CITY           SKY/WX    TMP DP  RH WIND       PRES   REMARKS
OKLAHOMA CITY  PTSUNNY   78  57  48 S14       30.08F
OKC/WILEY POST MOSUNNY   77  57  50 S14       30.08F
OKC/TINKER AFB MOSUNNY   76  58  52 S9        30.08F
STILLWATER     PTSUNNY   81  57  43 S12G21    30.07F
GUTHRIE        SUNNY     78  56  46 S13       30.07F
$$

OKZ008-013-054>072-222200-
NORTHEAST OKLAHOMA

CITY           SKY/WX    TMP DP  RH WIND       PRES   REMARKS
TULSA          MOSUNNY   77  58  51 SE10      30.08F
TULSA/JONES    MOSUNNY   78  58  49 S9        30.09F
PONCA CITY     MOSUNNY   80  56  43 S8G18     30.07F
BARTLESVILLE   PTSUNNY   77  60  55 SW8       30.10F
MUSKOGEE       SUNNY     76  57  51 E8        30.13S
$$

OKZ032-040>043-046>053-073>077-222200-
SOUTH CENTRAL/SOUTHEAST OKLAHOMA

CITY           SKY/WX    TMP DP  RH WIND       PRES   REMARKS
ARDMORE/DWNTWN MOSUNNY   77  55  47 S6        30.09S
MCALESTER      SUNNY     74  57  55 CALM      30.11F
$$




USA.gov is the U.S. government's official web portal to all federal, state and local government web resources and services.